This demonstration page uses our WeatherBlox Daily Observations layout. Learn more.

Left ArrowRight Arrow

34.74481, -87.66753

Hourly Observations for May 30, 2019

Temp ( °F °C ) Dew Point ( °F °C ) Humidity (%) Winds ( mph kmh ) Pressure ( in mb ) Visibility ( mi km ) Precip ( " mm )
12:53 am 00:53 Mostly Cloudy 77 25 66 18.9 69 69 Calm 29.88 1012 10 16 0.00 0.00
1:53 am 01:53 Clear 74 23.3 65 18.3 74 74 SSE 5 7 29.87 1011 10 16 0.00 0.00
2:53 am 02:53 Mostly Clear 75 23.9 64 17.8 69 69 S 6 9 29.87 1011 10 16 0.00 0.00
3:53 am 03:53 Clear 75 23.9 65 18.3 71 71 S 7 11 29.87 1012 10 16 0.00 0.00
4:53 am 04:53 Clear 76 24.4 65 18.3 69 69 SW 8 13 29.87 1012 10 16 0.00 0.00
5:53 am 05:53 Sunny 76 24.4 65 18.3 69 69 SSW 9 15 29.86 1011 10 16 0.00 0.00
6:53 am 06:53 Sunny 76 24.4 65 18.3 69 69 SW 6 9 29.85 1011 10 16 0.00 0.00
7:53 am 07:53 Sunny 78 25.6 67 19.4 69 69 S 8 13 29.86 1011 10 16 0.00 0.00
8:53 am 08:53 Sunny 83 28.3 66 18.9 57 57 WSW 16 26 29.90 1013 10 16 0.00 0.00
9:53 am 09:53 Partly Cloudy 83 28.3 67 19.4 59 59 W 16 26 29.91 1013 10 16 0.00 0.00
10:53 am 10:53 Mostly Cloudy 84 28.9 67 19.4 57 57 W 14 22 29.91 1013 10 16 0.00 0.00
11:53 am 11:53 Partly Cloudy 88 31.1 67 19.4 50 50 WSW 16 26 29.90 1013 10 16 0.00 0.00
12:53 pm 12:53 Partly Cloudy 88 31.1 65 18.3 46 46 WSW 15 24 29.89 1012 10 16 0.00 0.00
1:02 pm 13:02 Mostly Sunny 90 32.2 66 18.9 45 45 WSW 15 24 29.88 1012 10 16 0.00 0.00
1:53 pm 13:53 Partly Cloudy 89 31.7 66 18.9 47 47 WSW 8 13 29.88 1012 10 16 0.00 0.00
2:53 pm 14:53 Partly Cloudy 88 31.1 66 18.9 48 48 WSW 14 22 29.87 1012 10 16 0.01 0.25
3:53 pm 15:53 Mostly Cloudy 89 31.7 67 19.4 48 48 W 9 15 29.86 1011 10 16 0.00 0.00
4:53 pm 16:53 Mostly Cloudy 88 31.1 66 18.9 48 48 W 12 19 29.86 1011 10 16 0.00 0.00
5:30 pm 17:30 Mostly Sunny 88 31.1 64 17.8 45 45 WSW 17 28 29.85 1011 10 16 0.00 0.00
5:53 pm 17:53 Sunny 87 30.6 64 17.8 46 46 W 14 22 29.84 1011 10 16 0.00 0.00
6:53 pm 18:53 Mostly Sunny 84 28.9 66 18.9 55 55 W 12 19 29.85 1011 10 16 0.00 0.00
7:53 pm 19:53 Sunny 81 27.2 66 18.9 61 61 W 7 11 29.86 1011 10 16 0.00 0.00
8:53 pm 20:53 Clear 77 25 67 19.4 71 71 WSW 6 9 29.87 1012 10 16 0.00 0.00
9:53 pm 21:53 Clear 76 24.4 67 19.4 74 74 WSW 5 7 29.89 1012 10 16 0.00 0.00
10:53 pm 22:53 Clear 75 23.9 66 18.9 74 74 Calm 29.90 1013 10 16 0.00 0.00
11:53 pm 23:53 Clear 74 23.3 68 20 82 82 NW 3 6 29.90 1013 10 16 0.00 0.00

Powered by AerisWeather